| time (UTC) | temp F | wind direction | speed knots | gust knots | rain 1hr in | rain 24hr in | rain mn in | humidity % | barometer mb |
| 20260507223006 | 60 | 59 | 0.0 | 1.7 | 0.00 | 0.24 | 0.22 | 39 | 1009.0 |
| 20260507221510 | 60 | 59 | 0.0 | 3.5 | 0.00 | 0.24 | 0.22 | 36 | 1009.1 |
| 20260507220004 | 61 | 61 | 0.9 | 2.6 | 0.00 | 0.24 | 0.22 | 37 | 1009.0 |
| 20260507214503 | 61 | 286 | 0.0 | 1.7 | 0.00 | 0.24 | 0.22 | 45 | 1008.9 |
| 20260507213003 | 60 | 45 | 0.9 | 2.6 | 0.00 | 0.24 | 0.22 | 36 | 1008.8 |
| 20260507211502 | 61 | 90 | 0.0 | 4.3 | 0.00 | 0.24 | 0.22 | 35 | 1008.8 |
| 20260507210002 | 61 | 34 | 0.0 | 6.1 | 0.00 | 0.24 | 0.22 | 35 | 1008.8 |
| 20260507204500 | 62 | 86 | 0.0 | 4.3 | 0.00 | 0.24 | 0.22 | 34 | 1008.7 |
| 20260507203103 | 62 | 78 | 0.0 | 3.5 | 0.00 | 0.24 | 0.22 | 34 | 1008.6 |
| 20260507201600 | 62 | 274 | 0.9 | 3.5 | 0.00 | 0.24 | 0.22 | 34 | 1008.6 |
| 20260507200056 | 63 | 274 | 0.9 | 2.6 | 0.00 | 0.24 | 0.22 | 34 | 1008.7 |
| 20260507194628 | 64 | 275 | 1.7 | 4.3 | 0.00 | 0.25 | 0.22 | 34 | 1008.9 |
| 20260507193052 | 64 | 199 | 0.9 | 3.5 | 0.00 | 0.25 | 0.22 | 41 | 1009.0 |
| 20260507191552 | 64 | 27 | 1.7 | 3.5 | 0.00 | 0.25 | 0.22 | 39 | 1009.3 |
| 20260507190049 | 64 | 265 | 0.0 | 3.5 | 0.00 | 0.25 | 0.22 | 38 | 1009.5 |
| 20260507184550 | 64 | 53 | 2.6 | 5.2 | 0.00 | 0.26 | 0.22 | 36 | 1009.6 |
| 20260507183045 | 64 | 268 | 0.9 | 3.5 | 0.00 | 0.26 | 0.22 | 38 | 1009.9 |
| 20260507181544 | 63 | 267 | 0.0 | 4.3 | 0.00 | 0.26 | 0.22 | 36 | 1009.9 |
| 20260507180043 | 63 | 265 | 0.9 | 3.5 | 0.00 | 0.26 | 0.22 | 38 | 1010.1 |
| 20260507174548 | 63 | 284 | 1.7 | 3.5 | 0.00 | 0.28 | 0.22 | 40 | 1010.2 |
| 20260507173041 | 63 | 46 | 0.9 | 3.5 | 0.00 | 0.28 | 0.22 | 38 | 1010.5 |
| 20260507171546 | 62 | 9 | 0.9 | 1.7 | 0.00 | 0.28 | 0.22 | 43 | 1010.6 |
| 20260507170040 | 62 | 118 | 1.7 | 6.1 | 0.00 | 0.28 | 0.22 | 38 | 1011.0 |
| 20260507164535 | 61 | 285 | 0.0 | 4.3 | 0.00 | 0.30 | 0.22 | 50 | 1011.1 |
| 20260507163034 | 61 | 265 | 0.0 | 3.5 | 0.00 | 0.30 | 0.22 | 47 | 1011.4 |
| 20260507161539 | 61 | 265 | 0.9 | 2.6 | 0.00 | 0.30 | 0.22 | 43 | 1011.4 |
| 20260507160030 | 60 | 265 | 0.9 | 3.5 | 0.00 | 0.30 | 0.22 | 45 | 1011.7 |
| 20260507154534 | 59 | 63 | 0.9 | 4.3 | 0.00 | 0.30 | 0.22 | 43 | 1011.7 |
| 20260507153037 | 59 | 309 | 0.0 | 2.6 | 0.00 | 0.30 | 0.22 | 49 | 1012.0 |
| 20260507151525 | 58 | 9 | 0.9 | 3.5 | 0.00 | 0.30 | 0.22 | 49 | 1012.1 |
| 20260507150024 | 58 | 17 | 0.0 | 3.5 | 0.00 | 0.30 | 0.22 | 61 | 1012.1 |
| 20260507144518 | 57 | 284 | 0.9 | 2.6 | 0.00 | 0.30 | 0.22 | 60 | 1012.0 |
| 20260507143023 | 55 | 9 | 0.9 | 2.6 | 0.00 | 0.30 | 0.22 | 65 | 1012.0 |
| 20260507141516 | 55 | 53 | 0.9 | 3.5 | 0.00 | 0.30 | 0.22 | 65 | 1012.1 |
| 20260507140015 | 53 | 23 | 0.9 | 4.3 | 0.00 | 0.30 | 0.22 | 69 | 1012.0 |
| 20260507134514 | 52 | 39 | 0.9 | 2.6 | 0.00 | 0.30 | 0.22 | 76 | 1012.4 |
| 20260507133013 | 51 | 49 | 0.0 | 1.7 | 0.00 | 0.30 | 0.22 | 80 | 1012.2 |
| 20260507131517 | 52 | 349 | 0.0 | 1.7 | 0.00 | 0.30 | 0.22 | 85 | 1012.2 |
| 20260507130021 | 51 | 28 | 0.0 | 2.6 | 0.00 | 0.30 | 0.22 | 84 | 1012.1 |
| 20260507124511 | 50 | 26 | 0.0 | 1.7 | 0.00 | 0.30 | 0.22 | 88 | 1012.3 |
| 20260507123010 | 49 | 32 | 0.0 | 0.0 | 0.00 | 0.30 | 0.22 | 91 | 1012.1 |
| 20260507121507 | 49 | 32 | 0.0 | 0.0 | 0.00 | 0.30 | 0.22 | 92 | 1012.1 |
| 20260507120005 | 49 | 61 | 0.0 | 1.7 | 0.00 | 0.30 | 0.22 | 93 | 1012.2 |
| 20260507114503 | 49 | 61 | 0.0 | 0.0 | 0.00 | 0.30 | 0.22 | 94 | 1011.9 |
| 20260507113001 | 49 | 61 | 0.0 | 0.0 | 0.00 | 0.30 | 0.22 | 94 | 1011.6 |
| 20260507111603 | 49 | 61 | 0.0 | 0.0 | 0.00 | 0.30 | 0.22 | 94 | 1011.7 |
| 20260507110059 | 49 | 61 | 0.0 | 0.0 | 0.00 | 0.30 | 0.22 | 94 | 1011.3 |
| 20260507104556 | 49 | 61 | 0.0 | 0.0 | 0.00 | 0.30 | 0.22 | 94 | 1011.2 |
| 20260507103053 | 49 | 61 | 0.0 | 0.0 | 0.01 | 0.30 | 0.22 | 94 | 1010.9 |
| 20260507101555 | 49 | 61 | 0.0 | 0.0 | 0.01 | 0.30 | 0.22 | 94 | 1010.7 |
| 20260507100050 | 49 | 61 | 0.0 | 0.0 | 0.03 | 0.30 | 0.22 | 94 | 1010.7 |
| 20260507094549 | 50 | 61 | 0.0 | 0.0 | 0.04 | 0.30 | 0.22 | 94 | 1010.6 |
| 20260507093053 | 50 | 56 | 0.0 | 1.7 | 0.06 | 0.28 | 0.21 | 93 | 1010.4 |
| 20260507091547 | 50 | 243 | 0.0 | 0.0 | 0.08 | 0.28 | 0.21 | 94 | 1010.4 |
| 20260507090045 | 50 | 236 | 0.0 | 0.0 | 0.08 | 0.27 | 0.19 | 94 | 1010.3 |
| 20260507084547 | 50 | 115 | 0.0 | 0.0 | 0.08 | 0.26 | 0.18 | 94 | 1010.3 |
| 20260507083044 | 50 | 115 | 0.0 | 0.0 | 0.06 | 0.23 | 0.15 | 93 | 1010.3 |
| 20260507081543 | 50 | 115 | 0.0 | 0.0 | 0.04 | 0.20 | 0.12 | 93 | 1010.5 |
| 20260507080042 | 51 | 115 | 0.0 | 0.0 | 0.07 | 0.19 | 0.11 | 93 | 1010.6 |
| 20260507074541 | 51 | 115 | 0.0 | 0.0 | 0.08 | 0.18 | 0.10 | 93 | 1010.5 |
| 20260507073040 | 51 | 118 | 0.0 | 0.0 | 0.07 | 0.17 | 0.09 | 93 | 1010.4 |
| 20260507071600 | 51 | 118 | 0.0 | 0.0 | 0.07 | 0.16 | 0.08 | 92 | 1010.2 |
| 20260507070037 | 51 | 118 | 0.0 | 0.0 | 0.04 | 0.12 | 0.04 | 91 | 1010.6 |
| 20260507064533 | 52 | 121 | 0.0 | 0.0 | 0.02 | 0.10 | 0.02 | 91 | 1010.0 |
| 20260507063034 | 52 | 121 | 0.0 | 0.0 | 0.02 | 0.10 | 0.02 | 90 | 1009.8 |
| 20260507061530 | 53 | 196 | 0.0 | 0.0 | 0.01 | 0.09 | 0.01 | 90 | 1010.3 |
| 20260507060030 | 53 | 183 | 0.0 | 0.0 | 0.00 | 0.08 | 0.00 | 89 | 1010.0 |
| 20260507054524 | 54 | 67 | 0.0 | 0.0 | 0.00 | 0.08 | 0.00 | 89 | 1009.5 |
| 20260507053022 | 54 | 67 | 0.0 | 0.0 | 0.00 | 0.08 | 0.00 | 88 | 1009.7 |
| 20260507051528 | 55 | 68 | 0.0 | 0.9 | 0.00 | 0.08 | 0.00 | 89 | 1009.8 |
| 20260507050020 | 55 | 51 | 0.0 | 0.0 | 0.00 | 0.08 | 0.00 | 90 | 1009.6 |
| 20260507044515 | 56 | 38 | 0.0 | 0.9 | 0.00 | 0.08 | 0.00 | 91 | 1009.8 |
| 20260507043014 | 56 | 50 | 0.0 | 0.0 | 0.00 | 0.08 | 0.00 | 92 | 1009.8 |
| 20260507041512 | 56 | 43 | 0.0 | 0.9 | 0.00 | 0.08 | 0.00 | 92 | 1009.8 |
| 20260507040009 | 57 | 127 | 0.0 | 0.0 | 0.00 | 0.08 | 0.08 | 93 | 1009.6 |
| 20260507034519 | 57 | 149 | 0.0 | 0.0 | 0.00 | 0.08 | 0.08 | 94 | 1009.2 |
| 20260507033015 | 57 | 149 | 0.0 | 0.0 | 0.00 | 0.08 | 0.08 | 94 | 1009.2 |
| 20260507031507 | 58 | 149 | 0.0 | 0.0 | 0.00 | 0.08 | 0.08 | 94 | 1009.3 |
| 20260507030007 | 58 | 149 | 0.0 | 0.0 | 0.00 | 0.08 | 0.08 | 94 | 1009.7 |
| 20260507024509 | 58 | 149 | 0.0 | 0.0 | 0.01 | 0.08 | 0.08 | 95 | 1009.6 |
| 20260507023013 | 58 | 149 | 0.0 | 0.0 | 0.02 | 0.08 | 0.08 | 95 | 1009.6 |
| 20260507021505 | 58 | 149 | 0.0 | 0.0 | 0.02 | 0.08 | 0.08 | 95 | 1009.7 |
| 20260507020006 | 58 | 262 | 0.0 | 0.0 | 0.02 | 0.08 | 0.08 | 95 | 1009.7 |
| 20260507014508 | 58 | 254 | 0.0 | 0.0 | 0.01 | 0.07 | 0.07 | 94 | 1009.2 |
| 20260507013003 | 58 | 254 | 0.0 | 0.0 | 0.00 | 0.06 | 0.06 | 94 | 1009.2 |
| 20260507011505 | 58 | 254 | 0.0 | 0.0 | 0.00 | 0.06 | 0.06 | 94 | 1009.2 |
| 20260507010003 | 58 | 254 | 0.0 | 0.0 | 0.00 | 0.06 | 0.06 | 94 | 1009.1 |
| 20260507004502 | 58 | 254 | 0.0 | 0.0 | 0.00 | 0.06 | 0.06 | 94 | 1009.0 |
| 20260507003002 | 59 | 254 | 0.0 | 0.0 | 0.00 | 0.06 | 0.06 | 94 | 1008.9 |
| 20260507001500 | 59 | 254 | 0.0 | 0.0 | 0.00 | 0.06 | 0.06 | 94 | 1008.8 |
| 20260506234559 | 59 | 231 | 0.0 | 0.0 | 0.00 | 0.06 | 0.06 | 94 | 1008.6 |
| 20260506233100 | 59 | 221 | 0.0 | 0.0 | 0.00 | 0.06 | 0.06 | 94 | 1008.8 |
| 20260506231602 | 59 | 221 | 0.0 | 0.0 | 0.00 | 0.06 | 0.06 | 94 | 1008.9 |
| 20260506230059 | 59 | 221 | 0.0 | 0.0 | 0.00 | 0.06 | 0.06 | 94 | 1008.6 |
| 20260506224556 | 59 | 221 | 0.0 | 0.9 | 0.00 | 0.06 | 0.06 | 94 | 1008.6 |